This is the latest recevied weather packets stored in our database for station/object N8XE-13. If no packets are shown the sender has not sent any weather packets the latest 10 day(s).
| Time | Temp. | Humidity | Pressure | Rain* | Wind** | Luminosity | Snow |
|---|---|---|---|---|---|---|---|
| 1777740139 | 7.78° C | 55% | - | 0 mm | - | - | - |
| 1777739834 | 7.78° C | 53% | - | 0 mm | - | - | - |
| 1777739531 | 7.22° C | 51% | - | 0 mm | - | - | - |
| 1777739228 | 7.22° C | 52% | - | 0 mm | - | - | - |
| 1777738925 | 8.33° C | 53% | - | 0 mm | - | - | - |
| 1777738622 | 7.78° C | 51% | - | 0 mm | - | - | - |
| 1777738318 | 7.22° C | 53% | - | 0 mm | - | - | - |
| 1777738017 | 7.22° C | 55% | - | 0 mm | - | - | - |
| 1777737716 | 7.78° C | 54% | - | 0 mm | - | - | - |
| 1777737414 | 7.78° C | 55% | - | 0 mm | - | - | - |
| 1777737111 | 7.22° C | 55% | - | 0 mm | - | - | - |
| 1777736806 | 7.78° C | 55% | - | 0 mm | - | - | - |
| 1777736183 | 7.22° C | 56% | - | 0 mm | - | - | - |
| 1777735880 | 7.78° C | 58% | - | 0 mm | - | - | - |
| 1777735578 | 7.78° C | 55% | - | 0 mm | - | - | - |
| 1777735275 | 7.22° C | 59% | - | 0 mm | - | - | - |
| 1777734972 | 7.22° C | 61% | - | 0 mm | - | - | - |
| 1777734670 | 7.78° C | 60% | - | 0 mm | - | - | - |
| 1777734367 | 7.22° C | 61% | - | 0 mm | - | - | - |
| 1777734063 | 6.67° C | 63% | - | 0 mm | - | - | - |
| 1777733760 | 6.67° C | 61% | - | 0 mm | - | - | - |
| 1777733456 | 6.67° C | 64% | - | 0 mm | - | - | - |
| 1777733152 | 6.67° C | 63% | - | 0 mm | - | - | - |
| 1777732849 | 6.67° C | 64% | - | 0 mm | - | - | - |
| 1777732545 | 6.11° C | 63% | - | 0 mm | - | - | - |
* Rain latest hour (hover to see other rain measurements)
** Current wind speed in m/s (hover to see current wind gust speed)